When you browse on this site, cookies collect data to enhance your experience and personalize the content and advertising you see.
Visit our Privacy Policy to learn more. By continuing to use the site, you agree to this use of cookies and data.
  • In Deutschland
  • Länderverzeichnis
  • Für 7 Tage
  • Wassertemperatur
  • Wetterkarte
  • Widgets
  • user-avatar
    Anmelden

    Stündliche Wetter Kapan

    Heute, 24 September, Dienstag

    Zeit Temperatur Niederschläge Wind Luftdruck Luftfeuchtigkeit
    00:00 +14°C° 0 mm 1 m/S 683 mmHg 59%
    01:00 +13°C° 0 mm 1 m/S 683 mmHg 60%
    02:00 +13°C° 0 mm 1 m/S 683 mmHg 61%
    03:00 +13°C° 0 mm 1 m/S 684 mmHg 63%
    04:00 +13°C° 0 mm 1 m/S 684 mmHg 64%
    05:00 +13°C° 0 mm 1 m/S 684 mmHg 64%
    06:00 +12°C° 0 mm 1 m/S 684 mmHg 65%
    07:00 +15°C° 0 mm 1 m/S 685 mmHg 58%
    08:00 +18°C° 0 mm 1 m/S 685 mmHg 52%
    09:00 +19°C° 0 mm 2 m/S 686 mmHg 45%
    10:00 +20°C° 0 mm 2 m/S 686 mmHg 42%
    11:00 +21°C° 0 mm 2 m/S 685 mmHg 40%
    12:00 +24°C° 0 mm 3 m/S 685 mmHg 37%
    13:00 +24°C° 0 mm 3 m/S 685 mmHg 38%
    14:00 +24°C° 0 mm 3 m/S 684 mmHg 38%
    15:00 +24°C° 0 mm 3 m/S 684 mmHg 39%
    16:00 +21°C° 0 mm 2 m/S 683 mmHg 49%
    17:00 +19°C° 0 mm 2 m/S 683 mmHg 59%
    18:00 +18°C° 0 mm 1 m/S 682 mmHg 69%
    19:00 +18°C° 0 mm 1 m/S 683 mmHg 70%
    20:00 +16°C° 0 mm 1 m/S 683 mmHg 71%
    21:00 +15°C° 0 mm 0 m/S 683 mmHg 73%
    22:00 +15°C° 0 mm 0 m/S 683 mmHg 72%
    23:00 +15°C° 0 mm 0 m/S 683 mmHg 71%

    Morgen, 25 September, Mittwoch

    Zeit Temperatur Niederschläge Wind Luftdruck Luftfeuchtigkeit
    00:00 +15°C° 0 mm 0 m/S 682 mmHg 70%
    01:00 +15°C° 0 mm 1 m/S 682 mmHg 68%
    02:00 +15°C° 0 mm 1 m/S 682 mmHg 66%
    03:00 +15°C° 0 mm 1 m/S 682 mmHg 64%
    04:00 +15°C° 0 mm 1 m/S 682 mmHg 63%
    05:00 +15°C° 0 mm 1 m/S 682 mmHg 62%
    06:00 +14°C° 0 mm 1 m/S 682 mmHg 60%
    07:00 +18°C° 0 mm 1 m/S 683 mmHg 54%
    08:00 +21°C° 0 mm 1 m/S 684 mmHg 47%
    09:00 +23°C° 0 mm 1 m/S 684 mmHg 41%
    10:00 +24°C° 0 mm 2 m/S 684 mmHg 38%
    11:00 +26°C° 0 mm 2 m/S 684 mmHg 35%
    12:00 +27°C° 0 mm 2 m/S 684 mmHg 32%
    13:00 +27°C° 0 mm 2 m/S 684 mmHg 32%
    14:00 +28°C° 0 mm 2 m/S 684 mmHg 31%
    15:00 +28°C° 0 mm 2 m/S 684 mmHg 31%
    16:00 +25°C° 0 mm 2 m/S 683 mmHg 39%
    17:00 +23°C° 0 mm 1 m/S 683 mmHg 48%
    18:00 +21°C° 0 mm 1 m/S 682 mmHg 56%
    19:00 +20°C° 0 mm 1 m/S 683 mmHg 56%
    20:00 +20°C° 0 mm 1 m/S 683 mmHg 56%
    21:00 +19°C° 0 mm 1 m/S 683 mmHg 56%
    22:00 +19°C° 0 mm 1 m/S 683 mmHg 56%
    23:00 +19°C° 0 mm 1 m/S 683 mmHg 57%

    übermorgen, 26 September, Donnerstag

    Zeit Temperatur Niederschläge Wind Luftdruck Luftfeuchtigkeit
    00:00 +18°C° 0 mm 1 m/S 683 mmHg 57%
    01:00 +18°C° 0 mm 1 m/S 683 mmHg 55%
    02:00 +18°C° 0 mm 1 m/S 683 mmHg 54%
    03:00 +18°C° 0 mm 1 m/S 683 mmHg 52%
    04:00 +18°C° 0 mm 1 m/S 683 mmHg 52%
    05:00 +16°C° 0 mm 1 m/S 684 mmHg 52%
    06:00 +16°C° 0 mm 1 m/S 684 mmHg 52%
    07:00 +20°C° 0 mm 1 m/S 684 mmHg 47%
    08:00 +21°C° 0 mm 2 m/S 685 mmHg 42%
    09:00 +25°C° 0 mm 2 m/S 686 mmHg 36%
    10:00 +26°C° 0 mm 2 m/S 685 mmHg 34%
    11:00 +28°C° 0 mm 3 m/S 685 mmHg 31%
    12:00 +29°C° 0 mm 4 m/S 685 mmHg 29%
    13:00 +29°C° 0 mm 4 m/S 684 mmHg 28%
    14:00 +29°C° 0 mm 3 m/S 684 mmHg 28%
    15:00 +30°C° 0 mm 3 m/S 683 mmHg 28%
    16:00 +27°C° 0 mm 2 m/S 682 mmHg 36%
    17:00 +25°C° 0 mm 2 m/S 682 mmHg 44%
    18:00 +22°C° 0 mm 1 m/S 681 mmHg 52%
    19:00 +22°C° 0 mm 1 m/S 681 mmHg 52%
    20:00 +21°C° 0 mm 1 m/S 681 mmHg 52%
    21:00 +21°C° 0 mm 1 m/S 682 mmHg 52%
    22:00 +21°C° 0 mm 1 m/S 682 mmHg 53%
    23:00 +20°C° 0 mm 1 m/S 682 mmHg 54%

    27 September, Freitag

    Zeit Temperatur Niederschläge Wind Luftdruck Luftfeuchtigkeit
    00:00 +18°C° 0 mm 0 m/S 682 mmHg 54%
    01:00 +19°C° 0 mm 1 m/S 682 mmHg 56%
    02:00 +19°C° 0 mm 1 m/S 682 mmHg 57%
    03:00 +19°C° 0 mm 1 m/S 682 mmHg 58%
    04:00 +18°C° 0 mm 1 m/S 682 mmHg 59%
    05:00 +18°C° 0 mm 1 m/S 682 mmHg 60%
    06:00 +16°C° 0 mm 0 m/S 682 mmHg 60%
    07:00 +20°C° 0 mm 1 m/S 683 mmHg 56%
    08:00 +22°C° 0 mm 1 m/S 684 mmHg 51%
    09:00 +24°C° 0 mm 2 m/S 684 mmHg 46%
    10:00 +26°C° 0 mm 2 m/S 684 mmHg 43%
    11:00 +27°C° 0 mm 2 m/S 684 mmHg 40%
    12:00 +28°C° 0 mm 3 m/S 684 mmHg 37%
    13:00 +28°C° 0 mm 3 m/S 684 mmHg 37%
    14:00 +28°C° 0 mm 3 m/S 683 mmHg 37%
    15:00 +28°C° 0 mm 3 m/S 683 mmHg 38%
    16:00 +26°C° 0 mm 3 m/S 683 mmHg 46%
    17:00 +24°C° 0 mm 2 m/S 683 mmHg 54%
    18:00 +21°C° 0 mm 2 m/S 682 mmHg 63%
    19:00 +21°C° 0 mm 1 m/S 683 mmHg 65%
    20:00 +20°C° 0 mm 1 m/S 683 mmHg 68%
    21:00 +19°C° 0 mm 1 m/S 683 mmHg 70%
    22:00 +19°C° 0 mm 1 m/S 683 mmHg 72%
    23:00 +18°C° 0 mm 1 m/S 683 mmHg 73%

    28 September, Samstag

    Zeit Temperatur Niederschläge Wind Luftdruck Luftfeuchtigkeit
    00:00 +16°C° 0 mm 0 m/S 683 mmHg 75%
    01:00 +15°C° 0 mm 0 m/S 683 mmHg 75%
    02:00 +15°C° 0 mm 0 m/S 683 mmHg 76%
    03:00 +15°C° 0 mm 0 m/S 683 mmHg 76%
    04:00 +15°C° 0 mm 0 m/S 683 mmHg 76%
    05:00 +14°C° 0 mm 0 m/S 683 mmHg 76%
    06:00 +14°C° 0 mm 0 m/S 683 mmHg 76%
    07:00 +18°C° 0 mm 1 m/S 683 mmHg 69%
    08:00 +20°C° 0 mm 1 m/S 683 mmHg 62%
    09:00 +21°C° 0 mm 2 m/S 684 mmHg 55%
    10:00 +23°C° 0 mm 2 m/S 683 mmHg 50%
    11:00 +25°C° 0 mm 3 m/S 683 mmHg 46%
    12:00 +26°C° 0 mm 3 m/S 683 mmHg 42%
    13:00 +26°C° 0 mm 3 m/S 683 mmHg 42%
    14:00 +26°C° 0 mm 3 m/S 683 mmHg 41%
    15:00 +26°C° 0 mm 4 m/S 682 mmHg 41%
    16:00 +22°C° 0 mm 3 m/S 683 mmHg 50%
    17:00 +20°C° 0 mm 3 m/S 683 mmHg 60%
    18:00 +17°C° 0 mm 2 m/S 683 mmHg 69%
    19:00 +17°C° 0 mm 2 m/S 684 mmHg 70%
    20:00 +18°C° 0 mm 1 m/S 684 mmHg 72%
    21:00 +16°C° 0 mm 1 m/S 685 mmHg 73%
    22:00 +16°C° 0 mm 1 m/S 685 mmHg 76%
    23:00 +15°C° 0 mm 1 m/S 685 mmHg 78%

    29 September, Sonntag

    Zeit Temperatur Niederschläge Wind Luftdruck Luftfeuchtigkeit
    00:00 +14°C° 0 mm 1 m/S 685 mmHg 80%
    01:00 +14°C° 0 mm 1 m/S 685 mmHg 81%
    02:00 +14°C° 0 mm 1 m/S 685 mmHg 83%
    03:00 +12°C° 0 mm 0 m/S 685 mmHg 84%
    04:00 +13°C° 0 mm 0 m/S 685 mmHg 83%
    05:00 +14°C° 0 mm 1 m/S 685 mmHg 83%
    06:00 +14°C° 0 mm 1 m/S 686 mmHg 82%
    07:00 +15°C° 0 mm 1 m/S 686 mmHg 80%
    08:00 +15°C° 0 mm 1 m/S 686 mmHg 79%
    09:00 +16°C° 0 mm 1 m/S 687 mmHg 77%
    10:00 +17°C° 0 mm 2 m/S 687 mmHg 71%
    11:00 +18°C° 0 mm 2 m/S 687 mmHg 66%
    12:00 +19°C° 0 mm 3 m/S 687 mmHg 60%
    13:00 +19°C° 0 mm 3 m/S 686 mmHg 61%
    14:00 +19°C° 0 mm 3 m/S 686 mmHg 62%
    15:00 +19°C° 0 mm 4 m/S 685 mmHg 63%
    16:00 +18°C° 0 mm 3 m/S 685 mmHg 68%
    17:00 +17°C° 0 mm 3 m/S 685 mmHg 73%
    18:00 +16°C° 0 mm 2 m/S 685 mmHg 78%
    19:00 +16°C° 0 mm 2 m/S 686 mmHg 80%
    20:00 +16°C° 0 mm 2 m/S 686 mmHg 83%
    21:00 +15°C° 0 mm 1 m/S 686 mmHg 85%
    22:00 +15°C° 0 mm 1 m/S 686 mmHg 87%
    23:00 +14°C° 0 mm 1 m/S 686 mmHg 89%
    Mehr zeigen